FW1524 Weather Reports


Display with metric or nautical units.
time (UTC)temp
F
wind
direction
speed
MPH
gust
MPH
rain 1hr
in
rain 24hr
in
rain mn
in
humidity
%
barometer
mb
20260509184512 53 219 0.0 0.0 0.03 0.37 0.37 1 1007.7
20260509183008 53 219 0.0 0.0 0.01 0.35 0.35 1 1007.6
20260509181503 53 219 0.0 0.0 0.01 0.35 0.35 1 1007.7
20260509174556 53 219 0.0 0.0 0.00 0.34 0.34 1 1007.5
20260509173057 53 221 0.0 0.0 0.00 0.34 0.34 1 1007.4
20260509171547 52 227 0.0 1.0 0.01 0.34 0.34 1 1007.6
20260509164530 53 171 0.0 0.0 0.01 0.34 0.34 1 1007.5
20260509163036 53 163 0.0 0.0 0.02 0.34 0.34 1 1007.7
20260509161528 52 163 0.0 0.0 0.01 0.33 0.33 1 1008.0
20260509154516 52 163 0.0 0.0 0.03 0.33 0.33 1 1008.0
20260509153027 52 155 0.0 1.0 0.03 0.32 0.32 1 1008.3
20260509151512 52 144 0.0 0.0 0.04 0.32 0.32 1 1008.6
20260509144503 51 155 0.0 0.0 0.05 0.31 0.31 1 1008.9
20260509143102 51 138 0.0 0.0 0.04 0.30 0.30 1 1008.8
20260509141559 51 138 0.0 0.0 0.04 0.28 0.28 1 1008.9
20260509134556 50 131 0.0 0.0 0.05 0.27 0.27 1 1009.0
20260509133050 50 131 0.0 0.0 0.06 0.26 0.26 1 1009.1
20260509131547 50 131 0.0 0.0 0.06 0.25 0.25 1 1009.0
20260509124543 50 130 0.0 0.0 0.07 0.23 0.23 1 1009.4
20260509123046 49 130 0.0 0.0 0.06 0.21 0.21 1 1009.2
20260509121535 49 131 0.0 0.0 0.05 0.19 0.19 1 1009.4
20260509114525 49 132 0.0 0.0 0.06 0.16 0.16 1 1009.5
20260509113021 48 132 0.0 0.0 0.08 0.15 0.15 1 1009.3
20260509111517 48 67 0.0 0.0 0.09 0.14 0.14 1 1009.3
20260509104600 47 67 0.0 0.0 0.07 0.11 0.11 1 1009.6
20260509103102 46 67 0.0 0.0 0.04 0.08 0.08 1 1009.7
20260509101552 46 67 0.0 0.0 0.01 0.05 0.05 1 1009.4
20260509100152 45 67 0.0 0.0 0.01 0.05 0.05 1 1009.4
20260509094542 45 67 0.0 0.0 0.00 0.04 0.04 1 1009.0
20260509093042 45 67 0.0 0.0 0.00 0.04 0.04 1 1009.4
20260509091533 45 67 0.0 0.0 0.00 0.04 0.04 1 1009.2
20260509090130 45 67 0.0 0.0 0.01 0.04 0.04 1 1009.5
20260509084531 45 67 0.0 0.0 0.01 0.04 0.04 1 1009.6
20260509083022 45 67 0.0 0.0 0.01 0.04 0.04 1 1009.4
20260509081518 45 67 0.0 0.0 0.01 0.04 0.04 1 1010.0
20260509080114 45 67 0.0 0.0 0.01 0.03 0.03 1 1010.2
20260509074519 45 67 0.0 0.0 0.01 0.03 0.03 1 1010.0
20260509073014 45 67 0.0 0.0 0.02 0.03 0.03 1 1009.9
20260509071511 45 67 0.0 0.0 0.03 0.03 0.03 1 1009.8
20260509070108 46 67 0.0 0.0 0.02 0.02 0.02 1 1009.8
20260509064601 46 67 0.0 0.0 0.02 0.02 0.02 1 1009.9
20260509063054 46 67 0.0 0.0 0.02 0.02 0.02 1 1010.3
20260509061557 46 67 0.0 0.0 0.01 0.01 0.01 1 1010.4
20260509060046 46 67 0.0 0.0 0.00 0.00 0.00 1 1010.6
20260509054605 46 67 0.0 0.0 0.00 0.00 0.00 1 1010.6
20260509053050 46 67 0.0 0.0 0.00 0.00 0.00 1 1010.4
20260509051542 46 67 0.0 0.0 0.00 0.00 0.00 1 1010.6
20260509050046 46 67 0.0 0.0 0.00 0.00 0.00 1 1010.4
20260509044527 46 67 0.0 0.0 0.00 0.00 0.00 1 1010.7
20260509043023 45 67 0.0 0.0 0.00 0.00 0.00 1 1010.9
20260509041518 45 67 0.0 0.0 0.00 0.00 0.00 1 1010.9
20260509040014 45 67 0.0 0.0 0.00 0.00 0.00 1 1010.9
20260509034515 45 67 0.0 0.0 0.00 0.00 0.00 1 1010.7
20260509033009 45 67 0.0 0.0 0.00 0.00 0.00 1 1010.8
20260509031510 45 67 0.0 0.0 0.00 0.00 0.00 1 1010.8
20260509030001 46 67 0.0 0.0 0.00 0.00 0.00 12 1010.9
20260509024517 46 67 0.0 0.0 0.00 0.00 0.00 15 1011.0
20260509023014 46 67 0.0 0.0 0.00 0.00 0.00 15 1010.6
20260509021504 47 67 0.0 0.0 0.00 0.00 0.00 22 1010.9
20260509020059 48 67 0.0 0.0 0.00 0.00 0.00 28 1010.9
20260509014542 49 67 0.0 0.0 0.00 0.00 0.00 30 1010.6
20260509013041 49 67 0.0 0.0 0.00 0.00 0.00 37 1010.7
20260509011533 50 67 0.0 0.0 0.00 0.00 0.00 43 1010.6
20260509010029 50 67 0.0 0.0 0.00 0.00 0.00 41 1010.3
20260509004541 51 64 0.0 0.0 0.00 0.00 0.00 46 1010.0
20260509003028 51 64 0.0 0.0 0.00 0.00 0.00 46 1009.9
20260509001524 52 63 0.0 0.0 0.00 0.00 0.00 51 1009.8
20260509000019 53 63 0.0 0.0 0.00 0.00 0.00 53 1009.6
20260508234515 53 63 0.0 0.0 0.00 0.00 0.00 53 1009.4
20260508233012 54 63 0.0 0.0 0.00 0.00 0.00 57 1009.2
20260508231507 54 63 0.0 0.0 0.00 0.00 0.00 58 1009.2
20260508230003 55 63 0.0 0.0 0.00 0.00 0.00 54 1009.2
20260508224502 55 63 0.0 0.0 0.00 0.00 0.00 55 1009.2
20260508223058 55 63 0.0 0.0 0.00 0.00 0.00 55 1009.1
20260508221558 55 46 0.0 0.0 0.00 0.00 0.00 55 1009.2
20260508220050 55 39 0.0 0.0 0.00 0.00 0.00 54 1009.3
20260508214607 56 25 0.0 0.0 0.00 0.00 0.00 53 1009.2
20260508213058 57 227 0.0 0.0 0.00 0.00 0.00 52 1009.3
20260508211542 57 247 0.0 0.0 0.00 0.00 0.00 52 1009.3
20260508210040 57 11 0.0 0.0 0.00 0.00 0.00 53 1009.4
20260508204506 57 27 0.0 0.0 0.00 0.00 0.00 52 1009.7
20260508203003 58 28 0.0 1.0 0.00 0.00 0.00 51 1009.7
20260508201611 57 29 0.0 1.0 0.00 0.00 0.00 53 1009.7
20260508200121 57 32 0.0 1.0 0.00 0.00 0.00 53 1010.1
20260508194530 57 241 0.0 1.0 0.00 0.00 0.00 54 1010.1
20260508193024 56 210 0.0 3.0 0.00 0.00 0.00 54 1010.3
20260508191525 55 213 0.0 0.0 0.00 0.00 0.00 56 1010.6
20260508190016 56 213 0.0 9.0 0.00 0.00 0.00 56 1010.8